STARLINK-2231, 48577

Orbit data source: Space-Track

STARLINK-2231, 48577 is a payload satellite owned by SpaceX/Seattle (US) in LEO that was launched on Sat, 15 May 2021 UTC via an FALCON 9 launch vehicle from the Air Force Eastern Test Range (AFETR). Payload-class satellites include a variety of spacecraft equipped with specific instruments for various scientific and technological missions. These include communications satellites like Starlink; space stations such as the ISS; scientific satellites like the Hubble; Earth observation satellites from companies like Planet Labs, Umbra, and HawkEye 360; GPS; miniature CubeSats for education and research; and military/defense satellites.

Loading next visibility...
Identifier
48577, 2021-041AA
Orbit
LEO
Country
Flag of USUS
Related business
Manufacturer
SpaceX/Seattle
Mission
Operational Commercial Communications
Bus & Motor
STARLINK, Unknown motor
Mass
260 kg wet, ~248 kg dry
Launch date (UTC)
2021-05-15 (5 years ago)
Launch vehicle
FALCON 9
Launch site
Air Force Eastern Test Range (AFETR)
Object type
Payload
Rocket body
Debris
Shape & HBR
Box + 1 Pan, 10.1 m
Radar Cross Section
13.562 m², Large (>1 m²)

Expand to show TLE details & history
Last TLE update: 23 hours ago

TLE from 23 hours ago
0 STARLINK-2231
1 48577U 21041AA  25348.82840201  .00002860  00000-0  21080-3 0  9996
2 48577  53.0531 152.8464 0001086  89.9380 270.1734 15.06396751252402
Epoch: 2025-12-14T19:52Z
TLE epoch observation values (Epoch: 2025-12-14T19:52:53.933Z)
Latitude
0.00002°
Longitude
130.88597°
Altitude
548.098 km
Speed
7.589 km/s
True Right ascension
10h 11m 23s
True Declination
0° 00' 00"
Sunlit
Object was in daylight at epoch
Visualization orbit readout
Latitude
Unknown
Longitude
Unknown
Altitude
Unknown
Speed
Unknown
Apparent Right ascension
Unknown
Apparent Declination
Unknown
Sunlit
N/A
Visualization observer readout
Local Sidereal Time
17:23:09
Azimuth
Unknown
Elevation
Unknown
Doppler factor
Unknown
Orbital elements
Apogee altitude
548.245 km
Perigee altitude
546.74 km
Semi-major axis
6,925.629 km
Eccentricity
0.00011
Inclination
53.0531°
RAAN
152.8464°
Arg. of periapsis
89.938°
True anomaly
270.16096°
Mean anomaly
270.1734°
Eccentric anomaly
270.16718°
Mean motion
3.76577 °/min
Orbital period
95.6 mins
BSTAR
0.0002108
Loading maneuver chart data...
Computing Atmospheric mass density...
Loading historical data...
Loading historical data...
Loading historical data...
Loading historical data...
Loading historical data...
Loading historical data...
Loading historical data...

Documentation

Showing up to 5 results
|